This demonstration page uses our WeatherBlox Daily Observations layout. Learn more.

Left ArrowRight Arrow

38.83388, -104.82136

Hourly Observations for April 10, 2022

Temp ( °F °C ) Dew Point ( °F °C ) Humidity (%) Winds ( mph kmh ) Pressure ( in mb ) Visibility ( mi km ) Precip ( " mm )
12:19 am 00:19 Clear 57 14 9 -13 14 14 WNW 15 24 29.26 991 10 16 0.00 0.00
12:26 am 00:26 Clear 50 10 23 -5 35 35 WSW 16 26 29.25 991 10 16 0.00 0.00
12:58 am 00:58 Clear 47 8.1 28 -2.5 47 47 W 22 35 29.26 991 10 16 0.00 0.00
1:58 am 01:58 Mostly Cloudy 45 7.2 28 -2.3 51 51 W 18 30 29.29 992 10 16 0.00 0.00
2:58 am 02:58 Partly Cloudy 41 5 30 -1 66 66 WSW 16 26 29.26 991 10 16 0.00 0.00
3:58 am 03:58 Mostly Cloudy 41 5.1 31 -0.7 66 66 W 7 11 29.28 991 10 16 0.00 0.00
4:33 am 04:33 Mostly Clear 41 5 30 -1 66 66 WSW 17 28 29.29 992 10 16 0.00 0.00
4:58 am 04:58 Clear 40 4.5 30 -1.3 66 66 W 13 20 29.29 992 10 16 0.00 0.00
5:58 am 05:58 Clear 35 1.8 31 -0.6 84 84 WNW 20 31 29.29 992 10 16 0.00 0.00
6:58 am 06:58 Mostly Sunny 35 1.6 33 0.6 93 93 W 10 17 29.31 992 10 16 0.00 0.00
7:58 am 07:58 Sunny 39 4 32 -0.2 74 74 E 10 17 29.37 995 10 16 0.00 0.00
8:58 am 08:58 Sunny 43 5.9 32 0 66 66 E 3 6 29.40 996 10 16 0.00 0.00
9:58 am 09:58 Partly Cloudy 47 8.5 29 -1.6 49 49 WNW 3 6 29.39 995 10 16 0.00 0.00
10:58 am 10:58 Partly Cloudy 50 10 25 -3.7 38 38 ENE 18 30 29.34 994 10 16 0.00 0.00
11:58 am 11:58 Sunny 53 11.4 19 -7.4 26 26 E 22 35 29.35 994 10 16 0.00 0.00
12:48 pm 12:48 Sunny 55 13 -4 -20 8 8 ESE 16 26 29.39 995 10 16 0.00 0.00
12:49 pm 12:49 Sunny 55 13 -6 -21 8 8 ENE 20 31 29.40 996 10 16 0.00 0.00
12:56 pm 12:56 Sunny 55 13 -4 -20 8 8 E 21 33 29.38 995 10 16 0.00 0.00
12:58 pm 12:58 Sunny 56 13.5 -4 -20.2 8 8 E 23 37 29.39 995 10 16 0.00 0.00
1:01 pm 13:01 Sunny 55 13 -8 -22 7 7 E 16 26 29.40 996 10 16 0.00 0.00
1:15 pm 13:15 Sunny 55 13 -4 -20 8 8 E 20 31 29.40 996 10 16 0.00 0.00
1:22 pm 13:22 Sunny 57 14 -4 -20 8 8 E 17 28 29.40 996 10 16 0.00 0.00
1:27 pm 13:27 Sunny 57 14 -8 -22 7 7 E 13 20 29.40 996 10 16 0.00 0.00
1:29 pm 13:29 Sunny 57 14 -8 -22 7 7 ESE 20 31 29.40 996 10 16 0.00 0.00
1:33 pm 13:33 Sunny 55 13 -8 -22 7 7 ENE 16 26 29.41 996 10 16 0.00 0.00
1:43 pm 13:43 Sunny 57 14 -6 -21 7 7 ENE 12 19 29.40 996 10 16 0.00 0.00
1:48 pm 13:48 Sunny 57 14 -6 -21 7 7 ESE 17 28 29.40 996 10 16 0.00 0.00
1:52 pm 13:52 Sunny 57 14 -8 -22 7 7 E 15 24 29.41 996 10 16 0.00 0.00
1:58 pm 13:58 Sunny 57 14.1 -6 -21.3 7 7 E 7 11 29.43 997 10 16 0.00 0.00
2:01 pm 14:01 Sunny 57 14 -8 -22 7 7 E 18 30 29.41 996 10 16 0.00 0.00
2:18 pm 14:18 Sunny 55 13 -8 -22 7 7 E 16 26 29.43 997 10 16 0.00 0.00
2:28 pm 14:28 Sunny 57 14 -8 -22 7 7 ESE 20 31 29.43 997 10 16 0.00 0.00
2:57 pm 14:57 Sunny 57 14 -9 -23 6 6 E 23 37 29.43 997 10 16 0.00 0.00
2:58 pm 14:58 Sunny 57 13.9 -10 -23.2 6 6 E 23 37 29.43 997 10 16 0.00 0.00
3:11 pm 15:11 Sunny 55 13 -15 -26 5 5 ESE 25 41 29.44 997 10 16 0.00 0.00
3:18 pm 15:18 Sunny 55 13 -15 -26 5 5 E 12 19 29.45 997 10 16 0.00 0.00
3:58 pm 15:58 Sunny 56 13.4 -14 -25.6 5 5 NE 6 9 29.48 998 10 16 0.00 0.00
4:58 pm 16:58 Sunny 53 11.8 -12 -24.7 6 6 E 9 15 29.44 997 10 16 0.00 0.00
5:58 pm 17:58 Sunny 52 10.9 -14 -25.4 6 6 E 12 19 29.49 999 10 16 0.00 0.00
6:58 pm 18:58 Mostly Cloudy 50 10.2 -12 -24.2 7 7 ENE 8 13 29.50 999 10 16 0.00 0.00
7:41 pm 19:41 Cloudy 48 9 -9 -23 8 8 E 22 35 29.50 999 10 16 0.00 0.00
7:48 pm 19:48 Cloudy 43 6 1 -17 17 17 ESE 14 22 29.54 1000 10 16 0.00 0.00
7:58 pm 19:58 Cloudy 42 5.3 2 -16.5 19 19 ENE 8 13 29.53 1000 10 16 0.00 0.00
8:58 pm 20:58 Cloudy 40 4.3 2 -16.7 20 20 ENE 6 9 29.55 1001 10 16 0.00 0.00
9:58 pm 21:58 Cloudy 38 3.6 2 -16.7 21 21 E 3 6 29.53 1000 10 16 0.00 0.00
10:58 pm 22:58 undefined 37 2.5 1 -17.1 22 22 ESE 10 17 29.49 999 N/A 0.00 0.00
11:58 pm 23:58 undefined 36 2.1 2 -16.9 23 23 E 12 19 29.51 999 10 16 0.00 0.00

Powered by AerisWeather